星链-4797 (STARLINK-4797 )

导读

STARLINK-4797是由美国发射的星链卫星,星链计划是太空探索技术公司(SpaceX)推出的低轨卫星互联网项目。该卫星于北京时间2022年9月19日发射升空,是星链星座组网中的一员,旨在为全球提供高速互联网接入服务,目前已在轨道运行参与星座组网运营。

基本信息
目录编号:
53852
目录名称:
STARLINK-4797
国际标识:
2022-114AL
轨道中心:
EARTH
卫星名称:
星链-4797
卫星全名:
星链-4797 (STARLINK-4797 )
卫星状态:
在轨 (已飞行1447 天)
发射日期:
2022-09-19 UTC
国别 :
美国 (US)
星等 :
--
轨道信息
数据来源 国际轨道数据
星历时间: 2026-09-05T04:17:16+0800
10小时前
查看轨道信息
半长轴: 6848.877km
偏心率: 0.000135
轨道倾角: 53.161°
近地点辐角 82.282°
升交点赤经 196.907°
平近点角 277.833°
近地点: 469.815km
远地点: 471.665km
周期: 94.013分钟
每日圈数: 15.317001
详细信息
固有亮度:
5
最大亮度:
2.5
卫星平台:
Starlink v1.5
覆盖范围:
全球
运营商:
太空探索技术公司
运营商所在国:
美国
制造商(研发单位):
太空探索技术公司
制造商所在国:
美国
使用方式:
暂无
卫星简介
星链(Starlink)计划是由太空探索技术公司(SpaceX)提出的一个巨型低轨卫星互联网星座项目,计划在2019年至2024年间在太空搭建由约1.2万颗卫星组成的“星链”网络,其中1584颗将部署在地球上空550千米处的近地轨道,并从2020年开始工作。该卫星仍在工作。
2D轨道图
3D轨道图
轨道高度分析图
轨道倾角分析图
轨道综合分析图
查看轨道综合分析图
交会数据列表
事件ID 空间交会对象 最接近时刻(TCA) 交会距离 交会风险概率(CRP) 交会风险指数(CRI) 操作
CDM_260905-104805-099305-385222
2026-09-05T
10:48:05+0000
1.147 km
极远距离
1.503737E-5 中风险 0.59
CDM_260907-073705-385205-804321
2026-09-07T
07:37:33+0000
2.150 km
极远距离
1.992395E-6 低风险 0.41
CDM_260907-111905-385206-876821
2026-09-07T
11:19:23+0000
2.662 km
极远距离
1.396398E-6 低风险 0.38
CDM_260907-134305-385206-904621
2026-09-07T
13:43:12+0000
2.953 km
极远距离
1.118318E-6 低风险 0.36